Flag Weather past 2 weeks in Hereford, Texas, U.S.A.

Now
37 °F

Clear.


Feels Like: 32 °F
Forecast: 29 / 62 °F
Wind: 7 mph from Southeast

Location: Clovis Municipal

Current Time: Nov 26, 2014 at 9:25:37 PM

Latest Report: Nov 26, 2014 at 8:55 PM


Visibility: 10 mi

Pressure: 30.33 "Hg

Humidity: 56%

Dew point: 23 °F

Location of HerefordLocation

Historic Weather in Hereford — Graph

°F

Hereford temperature yesterday

Maximum temperature yesterday: 55 °F (at 3:35 PM)
Minimum temperature yesterday: 19 °F (at 7:35 AM)
Average temperature yesterday: 40 °F

Past Weeks' High & Low Weather Summary

 TemperatureHumidityPressure
High68 °F (Nov 22, 3:15 PM)93% (Nov 16, 8:55 AM)30.33 "Hg (Nov 16, 8:55 AM)
Low9 °F (Nov 17, 6:55 AM)13% (Nov 25, 4:15 PM)29.59 "Hg (Nov 23, 2:35 AM)
Average35 °F54%30.02 "Hg
* Reported Nov 11 8:15 PM — Nov 26 8:15 PM, Hereford, Weather by CustomWeather, © 2014

Note: Actual official high and low records may vary slightly from our data, if they occured in-between our weather recording intervals... More about our weather records

Advertising

Hereford weather history for previous 24 hours

 ConditionsComfort  
Time TempWeatherWind HumidityBarometerVisibility
8:15 PM
Nov 26
37 °FClear.7 mph56%30.31 "Hg10 mi
7:55 PM37 °FClear.7 mph56%30.31 "Hg10 mi
7:35 PM37 °FClear.7 mph60%30.31 "Hg10 mi
7:15 PM39 °FClear.8 mph52%30.30 "Hg10 mi
6:55 PM39 °FClear.8 mph56%30.30 "Hg10 mi
6:35 PM39 °FClear.8 mph56%30.29 "Hg10 mi
5:55 PM45 °FClear.8 mph46%30.28 "Hg10 mi
5:35 PM48 °FSunny.8 mph43%30.28 "Hg10 mi
5:15 PM52 °FSunny.6 mph38%30.27 "Hg10 mi
4:55 PM52 °FSunny.3 mph38%30.27 "Hg10 mi
4:35 PM52 °FSunny.3 mph38%30.26 "Hg10 mi
4:15 PM54 °FSunny.7 mph35%30.26 "Hg10 mi
3:55 PM54 °FSunny.7 mph35%30.24 "Hg10 mi
3:35 PM54 °FSunny.5 mph35%30.25 "Hg10 mi
3:15 PM52 °FSunny.5 mph38%30.24 "Hg10 mi
2:55 PM52 °FSunny.No wind38%30.24 "Hg10 mi
2:35 PM52 °FSunny.No wind38%30.24 "Hg10 mi
2:15 PM50 °FSunny.No wind40%30.24 "Hg10 mi
1:55 PM50 °FSunny.3 mph40%30.25 "Hg10 mi
1:35 PM48 °FSunny.No wind43%30.26 "Hg10 mi
1:15 PM48 °FSunny.6 mph43%30.26 "Hg10 mi
12:55 PM48 °FSunny.No wind43%30.27 "Hg10 mi
12:35 PM48 °FSunny.5 mph43%30.28 "Hg10 mi
12:15 PM48 °FSunny.5 mph43%30.29 "Hg10 mi
11:55 AM46 °FSunny.5 mph46%30.30 "Hg10 mi
11:35 AM45 °FSunny.9 mph49%30.29 "Hg10 mi
11:15 AM45 °FSunny.9 mph49%30.30 "Hg10 mi
10:55 AM43 °FSunny.14 mph53%30.30 "Hg10 mi
10:35 AM43 °FSunny.12 mph53%30.30 "Hg10 mi
10:15 AM41 °FSunny.15 mph61%30.30 "Hg10 mi
9:55 AM39 °FSunny.14 mph61%30.30 "Hg10 mi
9:35 AM39 °FSunny.15 mph61%30.30 "Hg10 mi
9:15 AM37 °FSunny.13 mph65%30.29 "Hg10 mi
8:55 AM36 °FSunny.10 mph65%30.29 "Hg10 mi
8:35 AM34 °FSunny.9 mph70%30.26 "Hg10 mi
8:15 AM34 °FSunny.10 mph60%30.24 "Hg10 mi
7:55 AM34 °FSunny.12 mph60%30.23 "Hg10 mi
7:35 AM34 °FSunny.13 mph51%30.22 "Hg10 mi
7:15 AM36 °FClear.16 mph48%30.21 "Hg10 mi
6:55 AM37 °FClear.16 mph45%30.18 "Hg10 mi
6:35 AM39 °FClear.18 mph42%30.17 "Hg10 mi
6:15 AM39 °FClear.15 mph42%30.13 "Hg10 mi
5:55 AM39 °FClear.13 mph42%30.11 "Hg10 mi
5:35 AM39 °FClear.16 mph42%30.11 "Hg10 mi
5:15 AM39 °FClear.17 mph42%30.10 "Hg10 mi
4:55 AM39 °FClear.17 mph42%30.10 "Hg10 mi
4:35 AM39 °FClear.16 mph39%30.10 "Hg10 mi
4:15 AM41 °FClear.14 mph36%30.09 "Hg10 mi
3:55 AM41 °FClear.14 mph36%30.09 "Hg10 mi
3:35 AM39 °FClear.13 mph39%30.08 "Hg10 mi
3:15 AM39 °FClear.12 mph39%30.08 "Hg10 mi
2:55 AM41 °FClear.12 mph36%30.09 "Hg10 mi
2:35 AM43 °FClear.12 mph34%30.08 "Hg10 mi
2:15 AM43 °FClear.15 mph34%30.07 "Hg10 mi
1:55 AM43 °FClear.18 mph31%30.06 "Hg10 mi
1:35 AM43 °FClear.20 mph31%30.06 "Hg10 mi
1:15 AM43 °FClear.21 mph29%30.06 "Hg10 mi
12:55 AM45 °FClear.20 mph27%30.06 "Hg10 mi
12:35 AM45 °FClear.21 mph27%30.06 "Hg10 mi
12:15 AM45 °FClear.21 mph27%30.06 "Hg10 mi
11:55 PM
Nov 25
43 °FClear.20 mph29%30.06 "Hg10 mi
11:35 PM43 °FClear.16 mph29%30.06 "Hg10 mi
11:15 PM45 °FClear.17 mph25%30.05 "Hg10 mi
10:55 PM45 °FClear.20 mph25%30.06 "Hg10 mi
10:35 PM45 °FClear.21 mph25%30.06 "Hg10 mi
10:15 PM45 °FClear.22 mph25%30.06 "Hg10 mi
9:35 PM45 °FClear.22 mph25%30.05 "Hg10 mi
9:15 PM46 °FClear.22 mph21%30.05 "Hg10 mi
Weather by CustomWeather, © 2014

See weather overviewHow to use our weather pages